Location: Biharia
(46.4333°N, 22.8000°E)
Time: 09:45:03
(UTC+00:00)

Lacrosse 4 Rocket - Pass Details

Date: 16 October 2021
Orbit: 537 x 619 km, 68.0° (Epoch: 08 December)

Event Time Altitude Azimuth Distance (km) Brightness Sun altitude
Rises 16:54:16 0° 340° (NNW) 2,781 5.2 -13.5°
Reaches altitude 10° 16:57:46 10° 11° (N) 1,900 4.0 -14.1°
Maximum altitude 16:59:36 12° 37° (NE) 1,755 3.6 -14.4°
Enters shadow 17:00:00 12° 43° (NE) 1,765 3.5 -14.5°
